This is the latest recevied weather packets stored in our database for station/object HB9FHL-13. If no packets are shown the sender has not sent any weather packets the latest 10 day(s).
| Time | Temp. | Humidity | Pressure | Rain* | Wind** | Luminosity | Snow |
|---|---|---|---|---|---|---|---|
| 1788310066 | 17.78° C | - | 1024.4 hPa | 0 mm | - | - | - |
| 1788309800 | 17.78° C | - | 1023.4 hPa | 0 mm | - | - | - |
| 1788309766 | 17.78° C | - | 1023.4 hPa | 0 mm | - | - | - |
| 1788309465 | 18.33° C | - | 1022.5 hPa | 0 mm | - | - | - |
| 1788309165 | 17.78° C | - | 1024.4 hPa | 0 mm | - | - | - |
| 1788308864 | 17.22° C | - | 1024.3 hPa | 0 mm | - | - | - |
| 1788308600 | 18.33° C | - | 1024.2 hPa | 0 mm | - | - | - |
| 1788308564 | 18.33° C | - | 1024.2 hPa | 0 mm | - | - | - |
| 1788308263 | 17.78° C | - | 1024.7 hPa | 0 mm | - | - | - |
| 1788308016 | 17.78° C | - | 1024.4 hPa | 0 mm | - | - | - |
| 1788307963 | 17.78° C | - | 1024.4 hPa | 0 mm | - | - | - |
| 1788307662 | 18.33° C | - | 1023.8 hPa | 0 mm | - | - | - |
| 1788307362 | 17.78° C | - | 1022.7 hPa | 0 mm | - | - | - |
| 1788307098 | 17.22° C | - | 1025.5 hPa | 0 mm | - | - | - |
| 1788307062 | 17.22° C | - | 1025.5 hPa | 0 mm | - | - | - |
| 1788306799 | 17.78° C | - | 1024.4 hPa | 0 mm | - | - | - |
| 1788306761 | 17.78° C | - | 1024.4 hPa | 0 mm | - | - | - |
| 1788306514 | 18.89° C | - | 1024.2 hPa | 0 mm | - | - | - |
| 1788306461 | 18.89° C | - | 1024.2 hPa | 0 mm | - | - | - |
| 1788306160 | 17.78° C | - | 1024.5 hPa | 0 mm | - | - | - |
| 1788305860 | 17.78° C | - | 1024.5 hPa | 0 mm | - | - | - |
| 1788305559 | 18.89° C | - | 1023 hPa | 0 mm | - | - | - |
| 1788305259 | 18.33° C | - | 1022.8 hPa | 0 mm | - | - | - |
| 1788305050 | 18.89° C | - | 1024.9 hPa | 0 mm | - | - | - |
| 1788304958 | 18.89° C | - | 1024.9 hPa | 0 mm | - | - | - |
* Rain since midnight (hover to see other rain measurements)
** Current wind speed in m/s (hover to see current wind gust speed)